Location: Godiavel Galaoual
(15.2485°N, 12.6604°W)
Time: 03:42:31
(UTC+00:00)

Envisat - Pass Details

Date: 06 December 2021
Orbit: 764 x 766 km, 98.2° (Epoch: 28 January)

Event Time Altitude Azimuth Distance (km) Brightness Sun altitude
Rises 06:05:24 0° 359° (N) 3,223 6.0 -14.0°
Reaches altitude 10° 06:07:51 10° 351° (N) 2,296 5.2 -13.4°
Maximum altitude 06:12:29 37° 284° (WNW) 1,167 3.4 -12.4°
Drops below altitude 10° 06:17:07 10° 218° (SW) 2,293 5.3 -11.3°
Sets 06:19:33 0° 210° (SSW) 3,217 6.1 -10.8°
